When you browse on this site, cookies collect data to enhance your experience and personalize the content and advertising you see.
Visit our Privacy Policy to learn more. By continuing to use the site, you agree to this use of cookies and data.
  • In Deutschland
  • Länderverzeichnis
  • Für 7 Tage
  • Wassertemperatur
  • Satellitenkarten
  • Wetterkarte
  • Widgets
  • user-avatar
    Anmelden

    Stündliche Wetter Bauru

    Heute, 18 Dezember, Dienstag

    Zeit Temperatur Niederschläge Wind Luftdruck Luftfeuchtigkeit
    00:00 +27°C° 0.8 mm 2 m/S 716 mmHg 78%
    01:00 +27°C° 1.8 mm 1 m/S 716 mmHg 81%
    02:00 +26°C° 1.8 mm 1 m/S 717 mmHg 85%
    03:00 +23°C° 0 mm 0 m/S 716 mmHg 88%
    04:00 +23°C° 0.9 mm 0 m/S 717 mmHg 88%
    05:00 +23°C° 0.9 mm 0 m/S 717 mmHg 89%
    06:00 +25°C° 0.9 mm 1 m/S 717 mmHg 89%
    07:00 +27°C° 0.7 mm 1 m/S 717 mmHg 81%
    08:00 +29°C° 0.7 mm 1 m/S 718 mmHg 73%
    09:00 +30°C° 0 mm 1 m/S 718 mmHg 70%
    10:00 +32°C° 0.7 mm 2 m/S 718 mmHg 63%
    11:00 +34°C° 0.7 mm 2 m/S 718 mmHg 55%
    12:00 +35°C° 0.7 mm 2 m/S 718 mmHg 48%
    13:00 +35°C° 0 mm 2 m/S 718 mmHg 51%
    14:00 +35°C° 0 mm 2 m/S 718 mmHg 53%
    15:00 +34°C° 0 mm 2 m/S 717 mmHg 55%
    16:00 +34°C° 0.8 mm 2 m/S 717 mmHg 60%
    17:00 +32°C° 0.8 mm 2 m/S 716 mmHg 64%
    18:00 +31°C° 0.8 mm 2 m/S 716 mmHg 69%
    19:00 +30°C° 0.1 mm 1 m/S 716 mmHg 71%
    20:00 +29°C° 0.1 mm 1 m/S 716 mmHg 74%
    21:00 +28°C° 0.1 mm 1 m/S 716 mmHg 77%
    22:00 +27°C° 1.3 mm 1 m/S 717 mmHg 80%
    23:00 +27°C° 1.3 mm 1 m/S 717 mmHg 83%

    Morgen, 19 Dezember, Mittwoch

    Zeit Temperatur Niederschläge Wind Luftdruck Luftfeuchtigkeit
    00:00 +26°C° 1.3 mm 1 m/S 717 mmHg 86%
    01:00 +26°C° 0.9 mm 1 m/S 717 mmHg 88%
    02:00 +25°C° 0.9 mm 2 m/S 717 mmHg 90%
    03:00 +25°C° 0.9 mm 2 m/S 717 mmHg 92%
    04:00 +25°C° 0 mm 2 m/S 717 mmHg 92%
    05:00 +24°C° 0 mm 2 m/S 717 mmHg 93%
    06:00 +24°C° 0 mm 1 m/S 717 mmHg 94%
    07:00 +26°C° 0 mm 2 m/S 717 mmHg 88%
    08:00 +27°C° 0 mm 2 m/S 717 mmHg 82%
    09:00 +29°C° 0 mm 2 m/S 717 mmHg 76%
    10:00 +30°C° 0.9 mm 1 m/S 717 mmHg 70%
    11:00 +32°C° 0.9 mm 1 m/S 717 mmHg 64%
    12:00 +33°C° 0.9 mm 1 m/S 717 mmHg 58%
    13:00 +32°C° 2.7 mm 1 m/S 716 mmHg 63%
    14:00 +31°C° 2.7 mm 1 m/S 716 mmHg 69%
    15:00 +30°C° 2.7 mm 1 m/S 715 mmHg 74%
    16:00 +29°C° 0 mm 1 m/S 715 mmHg 76%
    17:00 +29°C° 0 mm 1 m/S 715 mmHg 78%
    18:00 +29°C° 0 mm 1 m/S 714 mmHg 80%
    19:00 +28°C° 0 mm 1 m/S 715 mmHg 81%
    20:00 +27°C° 0 mm 1 m/S 715 mmHg 82%
    21:00 +26°C° 0 mm 1 m/S 715 mmHg 83%
    22:00 +26°C° 0 mm 1 m/S 715 mmHg 83%
    23:00 +26°C° 0 mm 1 m/S 715 mmHg 84%

    übermorgen, 20 Dezember, Donnerstag

    Zeit Temperatur Niederschläge Wind Luftdruck Luftfeuchtigkeit
    00:00 +25°C° 0 mm 1 m/S 715 mmHg 85%
    01:00 +25°C° 0.1 mm 1 m/S 715 mmHg 86%
    02:00 +25°C° 0.1 mm 1 m/S 714 mmHg 87%
    03:00 +24°C° 0.1 mm 1 m/S 714 mmHg 88%
    04:00 +24°C° 0.1 mm 1 m/S 714 mmHg 88%
    05:00 +24°C° 0.1 mm 1 m/S 714 mmHg 88%
    06:00 +24°C° 0.1 mm 1 m/S 714 mmHg 88%
    07:00 +26°C° 0 mm 1 m/S 715 mmHg 82%
    08:00 +28°C° 0 mm 2 m/S 715 mmHg 76%
    09:00 +29°C° 0 mm 2 m/S 715 mmHg 70%
    10:00 +30°C° 0.4 mm 3 m/S 715 mmHg 66%
    11:00 +33°C° 0.4 mm 3 m/S 715 mmHg 63%
    12:00 +34°C° 0.4 mm 4 m/S 715 mmHg 59%
    13:00 +34°C° 0.7 mm 4 m/S 715 mmHg 59%
    14:00 +34°C° 0.7 mm 3 m/S 714 mmHg 58%
    15:00 +34°C° 0.7 mm 3 m/S 714 mmHg 58%
    16:00 +31°C° 1.6 mm 3 m/S 714 mmHg 67%
    17:00 +29°C° 1.6 mm 2 m/S 714 mmHg 77%
    18:00 +27°C° 1.6 mm 2 m/S 714 mmHg 86%
    19:00 +27°C° 0 mm 1 m/S 714 mmHg 86%
    20:00 +26°C° 0 mm 1 m/S 714 mmHg 86%
    21:00 +26°C° 0 mm 1 m/S 714 mmHg 87%
    22:00 +25°C° 0 mm 1 m/S 714 mmHg 87%
    23:00 +25°C° 0 mm 1 m/S 714 mmHg 88%

    21 Dezember, Freitag

    Zeit Temperatur Niederschläge Wind Luftdruck Luftfeuchtigkeit
    00:00 +25°C° 0 mm 1 m/S 714 mmHg 89%
    01:00 +25°C° 0 mm 1 m/S 714 mmHg 90%
    02:00 +24°C° 0 mm 1 m/S 714 mmHg 91%
    03:00 +24°C° 0 mm 1 m/S 713 mmHg 92%
    04:00 +24°C° 0 mm 1 m/S 713 mmHg 92%
    05:00 +24°C° 0 mm 1 m/S 713 mmHg 92%
    06:00 +24°C° 0 mm 1 m/S 714 mmHg 91%
    07:00 +25°C° 0 mm 2 m/S 714 mmHg 86%
    08:00 +27°C° 0 mm 2 m/S 715 mmHg 80%
    09:00 +29°C° 0 mm 3 m/S 715 mmHg 74%
    10:00 +29°C° 1.9 mm 3 m/S 715 mmHg 72%
    11:00 +30°C° 1.9 mm 4 m/S 715 mmHg 70%
    12:00 +32°C° 1.9 mm 4 m/S 714 mmHg 68%
    13:00 +30°C° 3.7 mm 3 m/S 714 mmHg 73%
    14:00 +29°C° 3.7 mm 2 m/S 714 mmHg 78%
    15:00 +28°C° 3.7 mm 2 m/S 714 mmHg 84%
    16:00 +27°C° 1.1 mm 2 m/S 714 mmHg 85%
    17:00 +26°C° 1.1 mm 1 m/S 714 mmHg 87%
    18:00 +26°C° 1.1 mm 1 m/S 714 mmHg 89%
    19:00 +25°C° 1.2 mm 1 m/S 714 mmHg 90%
    20:00 +25°C° 1.2 mm 1 m/S 714 mmHg 91%
    21:00 +24°C° 1.2 mm 1 m/S 714 mmHg 93%
    22:00 +24°C° 0.8 mm 1 m/S 714 mmHg 92%
    23:00 +24°C° 0.8 mm 1 m/S 714 mmHg 92%

    22 Dezember, Samstag

    Zeit Temperatur Niederschläge Wind Luftdruck Luftfeuchtigkeit
    00:00 +24°C° 0.8 mm 1 m/S 714 mmHg 91%
    01:00 +24°C° 0 mm 2 m/S 714 mmHg 93%
    02:00 +23°C° 0 mm 2 m/S 713 mmHg 94%
    03:00 +23°C° 0 mm 2 m/S 713 mmHg 95%
    04:00 +23°C° 0 mm 1 m/S 713 mmHg 95%
    05:00 +23°C° 0 mm 1 m/S 713 mmHg 95%
    06:00 +21°C° 0 mm 0 m/S 713 mmHg 94%
    07:00 +24°C° 0.1 mm 1 m/S 714 mmHg 90%
    08:00 +26°C° 0.1 mm 2 m/S 714 mmHg 85%
    09:00 +27°C° 0.1 mm 3 m/S 715 mmHg 80%
    10:00 +28°C° 1.5 mm 3 m/S 715 mmHg 76%
    11:00 +30°C° 1.5 mm 3 m/S 715 mmHg 71%
    12:00 +32°C° 1.5 mm 4 m/S 714 mmHg 66%
    13:00 +30°C° 2.5 mm 3 m/S 714 mmHg 71%
    14:00 +29°C° 2.5 mm 3 m/S 713 mmHg 77%
    15:00 +27°C° 2.5 mm 3 m/S 713 mmHg 82%
    16:00 +27°C° 0.5 mm 2 m/S 713 mmHg 84%
    17:00 +26°C° 0.5 mm 1 m/S 713 mmHg 87%
    18:00 +25°C° 0.5 mm 1 m/S 713 mmHg 89%
    19:00 +25°C° 0.2 mm 1 m/S 713 mmHg 89%
    20:00 +25°C° 0.2 mm 1 m/S 713 mmHg 89%
    21:00 +24°C° 0.2 mm 1 m/S 714 mmHg 88%
    22:00 +24°C° 0.8 mm 1 m/S 714 mmHg 89%
    23:00 +24°C° 0.8 mm 1 m/S 713 mmHg 90%

    23 Dezember, Sonntag

    Zeit Temperatur Niederschläge Wind Luftdruck Luftfeuchtigkeit
    00:00 +24°C° 0.8 mm 1 m/S 713 mmHg 90%
    01:00 +23°C° 1.5 mm 1 m/S 713 mmHg 91%
    02:00 +23°C° 1.5 mm 1 m/S 712 mmHg 92%
    03:00 +23°C° 1.5 mm 1 m/S 712 mmHg 93%
    04:00 +23°C° 0.9 mm 1 m/S 713 mmHg 93%
    05:00 +23°C° 0.9 mm 1 m/S 713 mmHg 94%
    06:00 +23°C° 0.9 mm 1 m/S 713 mmHg 95%
    07:00 +24°C° 3 mm 2 m/S 714 mmHg 94%
    08:00 +24°C° 3 mm 2 m/S 714 mmHg 93%
    09:00 +25°C° 3 mm 3 m/S 715 mmHg 93%
    10:00 +25°C° 1.7 mm 3 m/S 715 mmHg 92%
    11:00 +25°C° 1.7 mm 2 m/S 714 mmHg 92%
    12:00 +25°C° 1.7 mm 2 m/S 714 mmHg 92%
    13:00 +25°C° 0.9 mm 2 m/S 714 mmHg 91%
    14:00 +26°C° 0.9 mm 1 m/S 713 mmHg 89%
    15:00 +26°C° 0.9 mm 1 m/S 713 mmHg 88%
    16:00 +25°C° 1.2 mm 1 m/S 713 mmHg 90%
    17:00 +25°C° 1.2 mm 1 m/S 713 mmHg 92%
    18:00 +24°C° 1.2 mm 1 m/S 713 mmHg 94%
    19:00 +24°C° 0.4 mm 1 m/S 713 mmHg 94%
    20:00 +24°C° 0.4 mm 1 m/S 714 mmHg 94%
    21:00 +24°C° 0.4 mm 1 m/S 714 mmHg 95%
    22:00 +24°C° 0.7 mm 1 m/S 714 mmHg 94%
    23:00 +23°C° 0.7 mm 1 m/S 714 mmHg 94%
    Mehr zeigen